Regional Weather Roundup
Issued by NWS

Home | Current Version | Previous Version | Graphics & Text | Print | Product List | Glossary On
Versions: 1 2 3 4 5 6 7 8 9 10 11 12 13 14 15 16 17 18 19 20 21 22 23 24 25 26 27 28 29 30 31 32 33 34 35 36 37 38 39 40 41 42 43 44 45 46 47 48 49 50
000
ASUS43 KDMX 300901
RWRIA

WEATHER ROUNDUP FOR IOWA
NATIONAL WEATHER SERVICE DES MOINES IA
400 AM CDT THU MAR 30 2017

NOTE: "FAIR" INDICATES FEW OR NO CLOUDS BELOW 12,000 FEET WITH NO
SIGNIFICANT WEATHER AND/OR OBSTRUCTIONS TO VISIBILITY.

* - THESE STATIONS ARE NOT NWS STATIONS...THUS NOT UNDER NWS
QUALITY CONTROL.  THEY ALSO DO NOT REPORT WEATHER SUCH
AS PRECIPITATION OR FOG.

IAZ001>003-012>014-020>022-031>034-043>046-301000-
   NORTHWEST IOWA

CITY           SKY/WX    TMP DP  RH WIND       PRES   REMARKS
CARROLL *      CLOUDY    39  39 100 E18       29.75S FOG     WCI  30
CHEROKEE *     CLOUDY    38  38 100 NE12G18   29.81F FOG     WCI  31
DENISON *      CLOUDY    39  39 100 E17G24    29.76S FOG     WCI  30
LE MARS *      CLOUDY    39  37  93 NE14G23   29.84F WCI  31
ORANGE CITY *  CLOUDY    37  37 100 E10G16    29.84F FOG     WCI  30
SHELDON *      CLOUDY    37  37 100 NE16G22   29.84F FOG     WCI  28
SIOUX CITY     CLOUDY    39  38  96 NE14      29.81F WCI  31
SPENCER        CLOUDY    38  36  92 NE20G28   29.85F WCI  28
STORM LAKE *   CLOUDY    37  37 100 NE21      29.80S FOG     WCI  27
$$

IAZ055>058-069>071-079>083-090>094-301000-
   SOUTHWEST IOWA

CITY           SKY/WX    TMP DP  RH WIND       PRES   REMARKS
ATLANTIC *     CLOUDY    41  41 100 NE14G20   29.69S FOG
AUDUBON *      CLOUDY    39  37  93 NE15      29.72F FOG     WCI  31
CLARINDA *     CLOUDY    45  45 100 NE8       29.64S
COUNCIL BLFS * CLOUDY    41  41 100 NE16      29.70F
CRESTON *      CLOUDY    43  43 100 NE21G26   29.61F
HARLAN  *      CLOUDY    41  41 100 NE14      29.75F FOG
LAMONI         CLOUDY    44  43  96 E15       29.61F
RED OAK *      CLOUDY    45  43  93 NE15      29.66F FOG
SHENANDOAH *   CLOUDY    45  43  93 N10       29.65S
$$

IAZ047>049-059>061-072>074-084-301000-
   CENTRAL IOWA

CITY           SKY/WX    TMP DP  RH WIND       PRES   REMARKS
AMES           CLOUDY    41  41 100 NE14      29.73F
ANKENY *       CLOUDY    43  41  93 E12G17    29.74F
BOONE *        CLOUDY    41  41 100 E21G26    29.72F FOG
CHARITON *     CLOUDY    43  41  93 NE18G24   29.65F
DES MOINES     CLOUDY    44  40  85 E16G23    29.70F
GRINNELL*      LGT RAIN  41  39  93 E16       29.74F
MARSHALLTOWN   CLOUDY    41  40  96 E15       29.75F
NEWTON *       CLOUDY    41  39  93 E15       29.71F
PELLA *        DRIZZLE   42  41  98 E9        29.72F
PERRY *        CLOUDY    42  41  95 E17G23    29.72F
$$

IAZ004>006-015-016-023>025-035-036-301000-
   NORTH CENTRAL IOWA

CITY           SKY/WX    TMP DP  RH WIND       PRES   REMARKS
ALGONA *       CLOUDY    39  39 100 E15       29.84F WCI  31
CLARION *      CLOUDY    39  39 100 E18G25    29.81F FOG     WCI  30
ESTHERVILLE    CLOUDY    36  36 100 NE17      29.87F FOG     WCI  26
FORT DODGE *   CLOUDY    39  36  87 E16       29.80F WCI  30
MASON CITY     CLOUDY    38  36  92 NE14      29.86F FOG     WCI  30
FOREST CITY *  CLOUDY    36  36 100 E13G21    29.86F FOG     WCI  27
WEBSTER CITY * CLOUDY    39  39 100 E18       29.76F WCI  30
IOWA FALLS *     N/A     40  39  93 E13G20    29.80F WCI  33
$$

IAZ007>011-017>019-026>030-037>042-050>054-066-301000-
   NORTHEAST IOWA

CITY           SKY/WX    TMP DP  RH WIND       PRES   REMARKS
CEDAR RAPIDS   LGT RAIN  41  41 100 E22       29.73F
CHARLES CITY * CLOUDY    39  39 100 E17G24    29.83F WCI  30
CLINTON *      LGT RAIN  42  41  96 E28       29.76F
DECORAH *      CLOUDY    37  36  93 NE13G18   29.86F WCI  29
DUBUQUE        LGT RAIN  40  38  93 E21G29    29.80F WCI  30
MONTICELLO *   CLOUDY    41  39  93 E15G22    29.78F
OELWEIN *      CLOUDY    41  39  93 E21       29.79F
WATERLOO       CLOUDY    41  38  89 E14       29.79F
$$

IAZ064-065-067-068-078-301000-
   EAST CENTRAL IOWA

CITY           SKY/WX    TMP DP  RH WIND       PRES   REMARKS
DAVENPORT      CLOUDY    42  40  92 E21G29    29.76F
IOWA CITY      CLOUDY    44  40  85 E15G26    29.75F
MUSCATINE *    CLOUDY    45  41  87 E12       29.74S
QUAD CITIES    CLOUDY    43  40  89 E23G29    29.74F
$$

IAZ062-063-075>077-085>089-095>099-301000-
   SOUTHEAST IOWA

CITY           SKY/WX    TMP DP  RH WIND       PRES   REMARKS
BURLINGTON     CLOUDY    48  48 100 E15       29.66F
FAIRFIELD *    CLOUDY    45  43  93 NE12G18   29.70S FOG
FORT MADISON * CLOUDY    48  48 100 E14G23    29.65F
KEOKUK *       CLOUDY    50  50 100 VRB6G21   29.67R
OSKALOOSA *    LGT RAIN  42  42  97 NE9G16    29.71S
CENTERVILLE *    N/A     41  41 100 NE8G16    29.66F
OTTUMWA        CLOUDY    45  43  93 E18G28    29.68F
WASHINGTON *   CLOUDY    45  45 100 E15       29.73R
$$

ABBREVIATIONS USED IN REMARKS
   TC - TEMPERATURES IN CELSIUS
  WCI - WIND CHILL INDEX
   HX - HEAT INDEX
  VSB - VISIBILITY
$$




USA.gov is the U.S. government's official web portal to all federal, state and local government web resources and services.